This is the latest recevied weather packets stored in our database for station/object F4IEI-10. If no packets are shown the sender has not sent any weather packets the latest 10 day(s).
| Time | Temp. | Humidity | Pressure | Rain* | Wind** | Luminosity | Snow |
|---|---|---|---|---|---|---|---|
| 1777772617 | 15° C | 78% | 1012.2 hPa | - | - | - | - |
| 1777771717 | 15° C | 81% | 1012.3 hPa | - | - | - | - |
| 1777770817 | 15° C | 75% | 1012.5 hPa | - | - | - | - |
| 1777769917 | 15° C | 79% | 1012.5 hPa | - | - | - | - |
| 1777769017 | 15° C | 81% | 1012.6 hPa | - | - | - | - |
| 1777768117 | 15° C | 80% | 1012.7 hPa | - | - | - | - |
| 1777767217 | 15° C | 73% | 1012.9 hPa | - | - | - | - |
| 1777766318 | 15.56° C | 77% | 1013 hPa | - | - | - | - |
| 1777765412 | 15.56° C | 77% | 1013.1 hPa | - | - | - | - |
| 1777764512 | 15.56° C | 79% | 1013.3 hPa | - | - | - | - |
| 1777763613 | 15° C | 72% | 1013.3 hPa | - | - | - | - |
| 1777762712 | 14.44° C | 76% | 1013.3 hPa | - | - | - | - |
| 1777761812 | 14.44° C | 69% | 1013.3 hPa | - | - | - | - |
| 1777760916 | 14.44° C | 77% | 1013.3 hPa | - | - | - | - |
| 1777760015 | 14.44° C | 68% | 1013.4 hPa | - | - | - | - |
| 1777759115 | 15.56° C | 80% | 1013.5 hPa | - | - | - | - |
| 1777758215 | 15.56° C | 87% | 1013.5 hPa | - | - | - | - |
| 1777757315 | 15.56° C | 82% | 1013.5 hPa | - | - | - | - |
| 1777756415 | 16.11° C | 79% | 1013.7 hPa | - | - | - | - |
| 1777755515 | 16.67° C | 69% | 1013.7 hPa | - | - | - | - |
| 1777754615 | 16.67° C | 74% | 1013.9 hPa | - | - | - | - |
| 1777753715 | 16.67° C | 67% | 1014 hPa | - | - | - | - |
| 1777752815 | 17.22° C | 68% | 1013.9 hPa | - | - | - | - |
| 1777751915 | 17.22° C | 75% | 1013.9 hPa | - | - | - | - |
| 1777751015 | 17.22° C | 63% | 1013.7 hPa | - | - | - | - |
* Rain since midnight (hover to see other rain measurements)
** Current wind speed in m/s (hover to see current wind gust speed)